Concordia, KS

10:13 PM CDT on September 28, 2016 (GMT -0500)
Blosser Municipal

Weather History for KCNK - June, 2012

Change the Weather History Date:

Monday, June 18, 2012

  Actual Average Record
Temperature  
Mean Temperature 84 °F 74 °F  
Max Temperature 94 °F 86 °F 103 °F (1953)
Min Temperature 73 °F 63 °F 50 °F (2000)
Degree Days  
Heating Degree Days 0 0  
Month to date heating degree days 13 11  
Since 1 June heating degree days 13 11  
Since 1 July heating degree days 4317 5406  
Cooling Degree Days 19 10  
Month to date cooling degree days 190 129  
Year to date cooling degree days 434 218  
Since 1 June cooling degree days 190 129  
Growing Degree Days 33 (Base 50)    
Moisture  
Dew Point 65 °F    
Average Humidity 58    
Maximum Humidity 74    
Minimum Humidity 41    
Precipitation  
Precipitation 0.00 in 0.13 in 3.40 in (1946)
Month to date precipitation 3.05 2.39  
Year to date precipitation 12.02 12.38  
Snow  
Snow 0.00 in 0.00 in T in (1968)
Month to date snowfall 0.0 0.0  
Year to date snowfall 5.8 13.7  
Since 1 July snowfall 6.7 20.2  
Snow Depth 0.00 in    
Sea Level Pressure  
Sea Level Pressure 29.55 in    
Wind  
Wind Speed 22 mph (South)    
Max Wind Speed 31 mph    
Max Gust Speed 38 mph    
Visibility 10 miles    
Events      
T = Trace of Precipitation, MM = Missing Value Source: NWS Daily Summary

Daily Weather History Graph

Daily Weather History Graph

Search for Another Location

Airport or City:

Trip Planner

Search our weather history database for the weather conditions in past years. The results will help you decide how hot, cold, wet, or windy it might be!

Date:

Astronomy

Jun. 18, 2012 Rise Set
Actual Time 6:02 AM CDT 9:00 PM CDT
Civil Twilight 5:30 AM CDT 9:33 PM CDT
Nautical Twilight 4:49 AM CDT 10:14 PM CDT
Astronomical Twilight 4:01 AM CDT 11:02 PM CDT
Moon 5:18 AM CDT (6/18) 8:20 PM CDT (6/18)
Length of Visible Light 16h 03m
Length of Day
14h 57m
Waning Crescent, 1% of the Moon is Illuminated
Jun 18
Waning Crescent
Jun 19
New
Jun 26
First Quarter
Jul 3
Full
Jul 10
Last Quarter

Hourly Weather History & Observations

Time (CDT) Temp. Heat Index Dew Point Humidity Pressure Visibility Wind Dir Wind Speed Gust Speed Precip Events Conditions
12:55 AM 79.0 °F - 61.0 °F 54% 29.55 in 10.0 mi South 21.9 mph 27.6 mph N/A   Clear
1:55 AM 78.1 °F - 64.9 °F 64% 29.54 in 10.0 mi South 19.6 mph 28.8 mph N/A   Clear
2:55 AM 77.0 °F - 66.0 °F 69% 29.54 in 10.0 mi South 20.7 mph 28.8 mph N/A   Clear
3:55 AM 75.9 °F - 66.0 °F 71% 29.52 in 10.0 mi South 24.2 mph 32.2 mph N/A   Clear
4:55 AM 75.0 °F - 64.9 °F 71% 29.52 in 10.0 mi SSW 23.0 mph 32.2 mph N/A   Clear
5:55 AM 73.9 °F - 64.0 °F 71% 29.51 in 10.0 mi South 20.7 mph 32.2 mph N/A   Clear
6:55 AM 73.9 °F - 64.0 °F 71% 29.52 in 10.0 mi South 24.2 mph 32.2 mph N/A   Clear
7:55 AM 75.9 °F - 64.0 °F 67% 29.56 in 10.0 mi SSW 23.0 mph 29.9 mph N/A   Clear
8:55 AM 78.1 °F - 64.9 °F 64% 29.57 in 10.0 mi SW 18.4 mph 26.5 mph N/A   Clear
9:55 AM 80.6 °F 82.3 °F 64.4 °F 58% 29.61 in 10.0 mi SSW 20.7 mph 31.1 mph N/A   Clear
10:55 AM 84.0 °F 86.3 °F 66.0 °F 55% 29.56 in 10.0 mi SSW 18.4 mph 28.8 mph N/A   Clear
11:55 AM 87.1 °F 89.9 °F 66.9 °F 51% 29.56 in 10.0 mi SSW 19.6 mph 27.6 mph N/A   Clear
12:55 PM 89.1 °F 92.1 °F 66.9 °F 48% 29.55 in 10.0 mi South 23.0 mph 27.6 mph N/A   Clear
1:55 PM 91.9 °F 95.4 °F 66.9 °F 44% 29.55 in 10.0 mi SSW 20.7 mph 29.9 mph N/A   Clear
2:55 PM 93.0 °F 95.9 °F 66.0 °F 41% 29.54 in 10.0 mi South 23.0 mph 33.4 mph N/A   Clear
3:55 PM 93.0 °F 96.4 °F 66.9 °F 42% 29.52 in 10.0 mi South 26.5 mph 34.5 mph N/A   Clear
4:55 PM 93.9 °F 97.0 °F 66.0 °F 40% 29.52 in 10.0 mi South 25.3 mph 34.5 mph N/A   Clear
5:55 PM 93.9 °F 97.5 °F 66.9 °F 41% 29.52 in 10.0 mi South 25.3 mph 31.1 mph N/A   Clear
6:55 PM 91.9 °F 94.1 °F 64.9 °F 41% 29.54 in 10.0 mi South 21.9 mph 36.8 mph N/A   Clear
7:55 PM 90.0 °F 92.4 °F 66.0 °F 45% 29.55 in 10.0 mi South 18.4 mph 24.2 mph N/A   Clear
8:55 PM 87.1 °F 88.9 °F 64.9 °F 48% 29.57 in 10.0 mi South 17.3 mph - N/A   Clear
9:55 PM 84.9 °F 87.1 °F 66.0 °F 53% 29.59 in 10.0 mi South 16.1 mph 23.0 mph N/A   Clear
10:55 PM 84.0 °F 85.8 °F 64.9 °F 53% 29.61 in 10.0 mi South 23.0 mph 31.1 mph N/A   Clear
11:55 PM 82.0 °F 83.8 °F 64.9 °F 56% 29.61 in 10.0 mi South 23.0 mph 32.2 mph N/A   Clear